FW8695 Weather Reports


time (UTC)temp
F
wind
direction
speed
knots
gust
knots
rain 1hr
in
rain 24hr
in
rain mn
in
humidity
%
barometer
mb
20260507013523 72 247 1.7 7.0 0.00 0.00 0.00 56 1016.9
20260507013109 73 244 4.3 7.8 0.00 0.00 0.00 55 1016.8
20260507012522 73 255 3.5 7.8 0.00 0.00 0.00 55 1016.7
20260507012024 73 253 2.6 7.8 0.00 0.00 0.00 54 1016.8
20260507011612 73 263 3.5 9.6 0.00 0.00 0.00 54 1016.6
20260507011020 74 257 2.6 9.6 0.00 0.00 0.00 54 1016.5
20260507010520 74 249 2.6 8.7 0.00 0.00 0.00 53 1016.6
20260507010115 74 257 2.6 9.6 0.00 0.00 0.00 53 1016.6
20260507005518 74 238 2.6 9.6 0.00 0.00 0.00 53 1016.7
20260507005017 74 280 3.5 7.8 0.00 0.00 0.00 53 1016.8
20260507004557 74 205 2.6 7.8 0.00 0.00 0.00 53 1016.8
20260507004018 74 284 1.7 8.7 0.00 0.00 0.00 53 1016.7
20260507003522 74 292 4.3 10.4 0.00 0.00 0.00 52 1016.8
20260507003306 74 223 5.2 10.4 0.00 0.00 0.00 51 1016.7
20260507002518 74 263 4.3 11.3 0.00 0.00 0.00 51 1016.8
20260507002017 75 265 4.3 11.3 0.00 0.00 0.00 51 1016.8
20260507001609 75 244 5.2 9.6 0.00 0.00 0.00 51 1016.9
20260507001020 75 243 5.2 11.3 0.00 0.00 0.00 50 1016.8
20260507000518 75 230 4.3 9.6 0.00 0.00 0.00 51 1016.8
20260507000111 75 241 4.3 9.6 0.00 0.00 0.00 51 1016.8
20260506235518 75 260 4.3 12.2 0.00 0.00 0.00 51 1016.8
20260506235018 75 223 4.3 12.2 0.00 0.00 0.00 51 1016.7
20260506234621 75 271 2.6 11.3 0.00 0.00 0.00 51 1016.7
20260506234021 75 257 5.2 11.3 0.00 0.00 0.00 51 1016.6
20260506233521 76 250 6.1 10.4 0.00 0.00 0.00 51 1016.6
20260506233110 76 232 4.3 10.4 0.00 0.00 0.00 51 1016.6
20260506232520 76 226 4.3 10.4 0.00 0.00 0.00 52 1016.6
20260506232019 76 244 5.2 13.9 0.00 0.00 0.00 52 1016.7
20260506231617 76 245 5.2 13.9 0.00 0.00 0.00 52 1016.7
20260506231020 76 251 5.2 13.0 0.00 0.00 0.00 51 1016.8
20260506230516 76 245 4.3 14.8 0.00 0.00 0.00 50 1016.8
20260506230307 76 229 5.2 14.8 0.00 0.00 0.00 50 1016.9
20260506225518 76 195 5.2 13.0 0.00 0.00 0.00 51 1016.9
20260506225019 76 270 5.2 12.2 0.00 0.00 0.00 50 1017.0
20260506224610 76 247 4.3 14.8 0.00 0.00 0.00 50 1017.1
20260506224032 76 245 6.1 13.0 0.00 0.00 0.00 49 1017.2
20260506223515 77 253 4.3 13.9 0.00 0.00 0.00 49 1017.3
20260506223044 77 239 6.1 13.9 0.00 0.00 0.00 49 1017.4
20260506222516 77 256 5.2 11.3 0.00 0.00 0.00 49 1017.5
20260506222016 77 232 4.3 10.4 0.00 0.00 0.00 49 1017.5
20260506221547 78 277 4.3 10.4 0.00 0.00 0.00 49 1017.7
20260506221016 78 236 4.3 11.3 0.00 0.00 0.00 50 1017.6
20260506220516 78 215 3.5 11.3 0.00 0.00 0.00 50 1017.9
20260506220049 78 239 2.6 9.6 0.00 0.00 0.00 50 1017.8
20260506215515 77 253 3.5 11.3 0.00 0.00 0.00 51 1017.8
20260506215015 77 204 4.3 11.3 0.00 0.00 0.00 51 1017.9
20260506214540 77 232 2.6 12.2 0.00 0.00 0.00 51 1017.9
20260506214016 77 251 4.3 12.2 0.00 0.00 0.00 51 1017.9
20260506213516 77 244 4.3 12.2 0.00 0.00 0.00 50 1018.0
20260506213037 77 245 4.3 12.2 0.00 0.00 0.00 51 1017.8
20260506212513 77 230 3.5 9.6 0.00 0.00 0.00 52 1017.9
20260506212014 77 236 3.5 13.0 0.00 0.00 0.00 53 1018.2
20260506211551 76 225 4.3 13.0 0.00 0.00 0.00 52 1018.2
20260506211017 76 238 3.5 10.4 0.00 0.00 0.00 53 1018.2
20260506210514 76 234 4.3 12.2 0.00 0.00 0.00 53 1018.2
20260506210044 76 240 4.3 12.2 0.00 0.00 0.00 53 1018.4
20260506205517 76 234 1.7 10.4 0.00 0.00 0.00 54 1018.2
20260506205014 75 238 4.3 9.6 0.00 0.00 0.00 54 1018.3
20260506204544 75 210 2.6 10.4 0.00 0.00 0.00 54 1018.2
20260506204022 75 234 5.2 10.4 0.00 0.00 0.00 54 1018.2
20260506203535 75 230 2.6 13.0 0.00 0.00 0.00 55 1018.4
20260506203105 75 251 3.5 13.0 0.00 0.00 0.00 54 1018.5
20260506202517 75 240 4.3 10.4 0.00 0.00 0.00 55 1018.5
20260506202014 75 221 3.5 12.2 0.00 0.00 0.00 55 1018.5
20260506201559 75 251 5.2 12.2 0.00 0.00 0.00 55 1018.5
20260506201014 75 242 4.3 12.2 0.00 0.00 0.00 55 1018.7
20260506200516 76 253 5.2 12.2 0.00 0.00 0.00 53 1018.7
20260506200057 76 238 4.3 12.2 0.00 0.00 0.00 54 1018.7
20260506195516 76 240 2.6 13.0 0.00 0.00 0.00 54 1018.6
20260506195015 76 196 5.2 13.0 0.00 0.00 0.00 53 1018.7
20260506194609 76 251 4.3 10.4 0.00 0.00 0.00 54 1018.6
20260506194014 76 234 4.3 13.0 0.00 0.00 0.00 53 1018.7
20260506193516 76 249 4.3 13.0 0.00 0.00 0.00 53 1018.7
20260506193057 76 244 2.6 9.6 0.00 0.00 0.00 54 1018.7
20260506192518 76 234 3.5 13.9 0.00 0.00 0.00 54 1018.7
20260506192016 77 238 5.2 13.9 0.00 0.00 0.00 53 1018.9
20260506191604 77 230 4.3 10.4 0.00 0.00 0.00 52 1018.8
20260506191017 77 252 4.3 10.4 0.00 0.00 0.00 51 1018.9
20260506190517 76 231 21.7 7.0 0.00 0.00 0.00 50 1018.8
20260506190053 76 218 2.6 7.8 0.00 0.00 0.00 51 1018.8
20260506185521 76 232 1.7 9.6 0.00 0.00 0.00 49 1018.9
20260506185016 76 188 3.5 9.6 0.00 0.00 0.00 51 1019.0
20260506184557 76 220 0.9 9.6 0.00 0.00 0.00 50 1019.2
20260506184019 75 250 0.9 9.6 0.00 0.00 0.00 51 1019.2
20260506183520 75 233 3.5 8.7 0.00 0.00 0.00 50 1019.2
20260506183056 75 230 2.6 8.7 0.00 0.00 0.00 50 1019.2
20260506182517 75 242 1.7 8.7 0.00 0.00 0.00 51 1019.3
20260506182016 74 138 1.7 8.7 0.00 0.00 0.00 51 1019.3
20260506181558 74 254 2.6 8.7 0.00 0.00 0.00 51 1019.3
20260506181019 74 240 2.6 8.7 0.00 0.00 0.00 51 1019.3
20260506180518 74 246 2.6 11.3 0.00 0.00 0.00 52 1019.4
20260506180051 74 184 3.5 11.3 0.00 0.00 0.00 51 1019.3
20260506175516 73 236 0.9 7.8 0.00 0.00 0.00 52 1019.4
20260506175016 73 249 2.6 8.7 0.00 0.00 0.00 52 1019.4
20260506174606 73 226 2.6 8.7 0.00 0.00 0.00 54 1019.5
20260506174023 73 214 1.7 7.8 0.00 0.00 0.00 53 1019.5
20260506173519 73 137 1.7 6.1 0.00 0.00 0.00 55 1019.4
20260506173127 72 245 1.7 6.1 0.00 0.00 0.00 56 1019.5
20260506172519 72 245 2.6 6.1 0.00 0.00 0.00 56 1019.5
20260506172024 72 211 0.9 5.2 0.00 0.00 0.00 57 1019.6
20260506171600 71 210 0.9 3.5 0.00 0.00 0.00 58 1019.5
20260506171017 71 210 0.0 4.3 0.00 0.00 0.00 58 1019.5
20260506170520 70 216 0.9 4.3 0.00 0.00 0.00 57 1019.5
20260506170443 70 215 0.0 7.0 0.00 0.00 0.00 59 1019.5
20260506165518 69 217 2.6 7.0 0.00 0.00 0.00 57 1019.6
20260506165020 69 215 0.9 3.5 0.00 0.00 0.00 59 1019.6
20260506164610 69 214 0.9 5.2 0.00 0.00 0.00 60 1019.6
20260506164020 68 213 0.9 5.2 0.00 0.00 0.00 63 1019.6
20260506163535 67 284 0.9 6.1 0.00 0.00 0.00 64 1019.6
20260506163109 67 18 0.9 3.5 0.00 0.00 0.00 65 1019.7
20260506162522 66 18 0.0 1.7 0.00 0.00 0.00 69 1019.7
20260506162015 65 18 0.0 1.7 0.00 0.00 0.00 71 1019.6
20260506161612 64 18 0.0 0.9 0.00 0.00 0.00 75 1019.5
20260506161016 63 18 0.0 1.7 0.00 0.00 0.00 75 1019.6
20260506160515 62 18 0.0 2.6 0.00 0.00 0.00 76 1019.6
20260506160111 61 13 0.9 2.6 0.00 0.00 0.00 77 1019.5
20260506155519 60 13 0.0 3.5 0.00 0.00 0.00 81 1019.6
20260506155017 59 13 0.9 3.5 0.00 0.00 0.00 82 1019.5
20260506154601 58 5 0.9 3.5 0.00 0.00 0.00 88 1019.5
20260506154017 57 27 0.9 3.5 0.00 0.00 0.00 90 1019.5
20260506153516 56 18 0.9 3.5 0.00 0.00 0.00 92 1019.5
20260506153100 55 45 0.9 4.3 0.00 0.00 0.00 93 1019.4
20260506152519 55 76 1.7 5.2 0.00 0.00 0.00 94 1019.4
20260506152016 54 54 1.7 5.2 0.00 0.00 0.00 95 1019.4
20260506151821 54 47 0.9 4.3 0.00 0.00 0.00 95 1019.6
20260506151015 53 47 1.7 4.3 0.00 0.00 0.00 95 1019.7
20260506150516 52 49 0.9 3.5 0.00 0.00 0.00 95 1019.7
20260506150101 51 47 0.9 3.5 0.00 0.00 0.00 95 1019.6
20260506145519 51 47 0.0 2.6 0.00 0.00 0.00 95 1019.5
20260506145017 50 46 0.0 2.6 0.00 0.00 0.00 95 1019.6
20260506144600 50 45 0.0 1.7 0.00 0.00 0.00 94 1019.5
20260506144015 49 45 0.0 3.5 0.00 0.00 0.00 94 1019.5
20260506143519 49 49 0.9 2.6 0.00 0.00 0.00 94 1019.8
20260506143053 48 49 0.0 2.6 0.00 0.00 0.00 94 1019.7
20260506142516 48 49 0.9 2.6 0.00 0.00 0.00 94 1019.6
20260506142013 47 48 0.9 2.6 0.00 0.00 0.00 94 1019.5
20260506141550 47 47 0.9 2.6 0.00 0.00 0.00 93 1019.5
20260506141019 46 47 0.9 2.6 0.00 0.00 0.00 93 1019.4
20260506140514 45 47 0.0 2.6 0.00 0.00 0.00 92 1019.5
20260506135515 44 47 0.0 0.0 0.00 0.00 0.00 90 1019.4
20260506135016 44 47 0.0 0.0 0.00 0.00 0.00 89 1019.3
20260506134545 44 47 0.0 0.0 0.00 0.00 0.00 89 1019.3
20260506134015 44 47 0.0 0.0 0.00 0.00 0.00 89 1019.2
20260506133517 44 47 0.0 0.0 0.00 0.00 0.00 88 1019.4
20260506133056 44 47 0.0 0.0 0.00 0.00 0.00 88 1019.4
20260506132517 44 47 0.0 0.0 0.00 0.00 0.00 88 1019.2
20260506132015 44 47 0.0 0.0 0.00 0.00 0.00 88 1019.1
20260506131546 44 47 0.0 0.0 0.00 0.00 0.00 88 1019.2
20260506131017 44 47 0.0 0.0 0.00 0.00 0.00 88 1019.1
20260506130514 44 47 0.0 0.0 0.00 0.00 0.00 88 1019.0
20260506130133 44 47 0.0 0.0 0.00 0.00 0.00 88 1019.1
20260506125514 44 47 0.0 0.0 0.00 0.00 0.00 89 1019.0
20260506125015 45 47 0.0 0.0 0.00 0.00 0.00 88 1018.9
20260506124542 45 47 0.0 0.0 0.00 0.00 0.00 88 1018.8
20260506124016 45 47 0.0 0.0 0.00 0.00 0.00 88 1018.8
20260506123516 45 47 0.0 0.0 0.00 0.00 0.00 88 1018.9
20260506123053 45 47 0.0 0.0 0.00 0.00 0.00 88 1018.8
20260506122517 45 47 0.0 0.0 0.00 0.00 0.00 88 1018.8
20260506122015 45 47 0.0 0.0 0.00 0.00 0.00 88 1018.8
20260506121556 45 47 0.0 0.0 0.00 0.00 0.00 88 1018.6
20260506121013 45 47 0.0 0.0 0.00 0.00 0.00 88 1018.7
20260506120515 45 47 0.0 0.0 0.00 0.00 0.00 88 1018.7
20260506120057 45 47 0.0 0.0 0.00 0.00 0.00 88 1018.7
20260506115517 45 47 0.0 0.0 0.00 0.00 0.00 88 1018.6
20260506115014 45 47 0.0 0.0 0.00 0.00 0.00 88 1018.5
20260506114551 46 47 0.0 0.0 0.00 0.00 0.00 88 1018.6
20260506114019 46 47 0.0 0.0 0.00 0.00 0.00 88 1018.5
20260506113515 46 47 0.0 0.0 0.00 0.00 0.00 88 1018.6
20260506113052 46 47 0.0 0.0 0.00 0.00 0.00 88 1018.6
20260506112518 46 47 0.0 0.0 0.00 0.00 0.00 88 1018.6
20260506112017 46 47 0.0 0.0 0.00 0.00 0.00 88 1018.6
20260506111552 46 47 0.0 0.0 0.00 0.00 0.00 88 1018.5
20260506111016 46 47 0.0 0.0 0.00 0.00 0.00 88 1018.5
20260506110518 46 47 0.0 0.0 0.00 0.00 0.00 88 1018.5
20260506110051 46 47 0.0 0.0 0.00 0.00 0.00 88 1018.5
20260506105515 46 47 0.0 0.0 0.00 0.00 0.00 88 1018.4
20260506105020 46 47 0.0 0.0 0.00 0.00 0.00 88 1018.3
20260506104559 46 47 0.0 0.0 0.00 0.00 0.00 88 1018.4
20260506104018 46 47 0.0 0.0 0.00 0.00 0.00 88 1018.2
20260506103514 46 47 0.0 0.0 0.00 0.00 0.00 87 1018.3
20260506103054 46 47 0.0 0.0 0.00 0.00 0.00 87 1018.2
20260506102514 46 47 0.0 0.9 0.00 0.00 0.00 87 1018.3
20260506102016 46 47 0.0 0.9 0.00 0.00 0.00 87 1018.3
20260506101541 47 47 0.0 0.0 0.00 0.00 0.00 87 1018.4
20260506101016 47 47 0.0 0.0 0.00 0.00 0.00 87 1018.4
20260506100516 47 47 0.0 0.0 0.00 0.00 0.00 87 1018.4
20260506100106 47 47 0.0 0.0 0.00 0.00 0.00 87 1018.4
20260506095515 47 47 0.0 0.0 0.00 0.00 0.00 87 1018.4
20260506095016 47 47 0.0 0.0 0.00 0.00 0.00 87 1018.3
20260506094552 47 47 0.0 0.0 0.00 0.00 0.00 87 1018.3
20260506094016 47 47 0.0 0.0 0.00 0.00 0.00 87 1018.3
20260506093520 48 47 0.0 0.0 0.00 0.00 0.00 87 1018.5
20260506093048 48 47 0.0 0.0 0.00 0.00 0.00 87 1018.6
20260506092514 48 47 0.0 0.0 0.00 0.00 0.00 87 1018.6
20260506092015 48 47 0.0 0.0 0.00 0.00 0.00 87 1018.6
20260506091806 48 47 0.0 0.0 0.00 0.00 0.00 87 1018.6
20260506091020 48 47 0.0 0.0 0.00 0.00 0.00 87 1018.6
20260506090521 49 47 0.0 0.0 0.00 0.00 0.00 87 1018.6
20260506090332 49 47 0.0 0.0 0.00 0.00 0.00 87 1018.5
20260506085517 49 47 0.0 0.0 0.00 0.00 0.00 87 1018.6
20260506085016 49 47 0.0 0.0 0.00 0.00 0.00 87 1018.6
20260506084556 49 47 0.0 0.0 0.00 0.00 0.00 87 1018.6
20260506084017 49 47 0.0 0.0 0.00 0.00 0.00 87 1018.7
20260506083518 50 47 0.0 0.0 0.00 0.00 0.00 86 1018.7
20260506083055 50 47 0.0 0.0 0.00 0.00 0.00 86 1018.7
20260506082516 50 47 0.0 0.0 0.00 0.00 0.00 87 1018.7
20260506082016 50 47 0.0 0.0 0.00 0.00 0.00 87 1018.7
20260506081609 50 47 0.0 0.0 0.00 0.00 0.00 87 1018.7
20260506081016 51 47 0.0 0.0 0.00 0.00 0.00 87 1018.7
20260506080517 51 47 0.0 0.0 0.00 0.00 0.00 87 1018.6
20260506073522 51 47 0.0 0.0 0.00 0.00 0.00 87 1018.7
20260506073057 51 47 0.0 0.0 0.00 0.00 0.00 87 1018.6
20260506072516 52 47 0.0 0.0 0.00 0.00 0.00 88 1018.5
20260506072018 52 47 0.0 0.0 0.00 0.00 0.00 88 1018.5
20260506071602 52 47 0.0 0.0 0.00 0.00 0.00 88 1018.4
20260506071016 52 47 0.0 0.0 0.00 0.00 0.00 88 1018.6
20260506070518 52 47 0.0 0.0 0.00 0.00 0.00 88 1018.5
20260506062516 51 253 0.0 0.0 0.00 0.00 0.00 85 1018.0
20260506062018 51 253 0.0 0.0 0.00 0.00 0.00 84 1017.8
20260506061609 52 253 0.0 0.0 0.00 0.00 0.00 84 1017.9
20260506061018 52 253 0.0 0.0 0.00 0.00 0.00 83 1017.8
20260506060516 52 253 0.0 0.0 0.00 0.00 0.00 84 1017.7
20260506060106 52 253 0.0 0.0 0.00 0.00 0.00 84 1017.7
20260506051018 54 253 0.0 0.0 0.00 0.00 0.00 83 1017.5
20260506050518 54 253 0.0 0.0 0.00 0.00 0.00 83 1017.4
20260506045016 55 253 0.0 0.0 0.00 0.00 0.00 82 1017.2
20260506044600 55 253 0.0 0.0 0.00 0.00 0.00 82 1017.3
20260506044017 55 253 0.0 0.0 0.00 0.00 0.00 82 1017.2
20260506043519 56 253 0.0 0.0 0.00 0.00 0.00 81 1017.2
20260506043310 56 253 0.0 0.0 0.00 0.00 0.00 81 1017.2
20260506042518 56 253 0.0 0.0 0.00 0.00 0.00 81 1017.0
20260506042021 56 253 0.0 0.0 0.00 0.00 0.00 81 1016.8
20260506041558 57 253 0.0 0.0 0.00 0.00 0.00 81 1017.1
20260506041021 57 253 0.0 0.0 0.00 0.00 0.00 81 1016.8
20260506040518 57 253 0.0 0.0 0.00 0.00 0.00 80 1017.0
20260506040056 57 253 0.0 0.0 0.00 0.00 0.00 80 1016.7
20260506035518 58 253 0.0 0.0 0.00 0.00 0.00 79 1016.5
20260506035017 58 253 0.0 0.0 0.00 0.00 0.00 78 1016.4
20260506034618 58 253 0.0 0.0 0.00 0.00 0.00 78 1016.1
20260506034021 59 253 0.0 0.0 0.00 0.00 0.00 79 1016.0
20260506033517 59 253 0.0 0.0 0.00 0.00 0.00 78 1016.0
20260506033056 59 253 0.0 0.0 0.00 0.00 0.00 78 1016.0
20260506032519 60 253 0.0 0.0 0.00 0.00 0.00 78 1015.9
20260506032021 60 253 0.0 0.0 0.00 0.00 0.00 77 1015.8
20260506031604 60 253 0.0 0.0 0.00 0.00 0.00 77 1015.7
20260506031016 61 253 0.0 0.0 0.00 0.00 0.00 76 1015.8
20260506030516 61 253 0.0 0.0 0.00 0.00 0.00 76 1015.7
20260506025515 62 253 0.0 0.0 0.00 0.00 0.00 76 1015.5
20260506025015 62 253 0.0 0.0 0.00 0.00 0.00 75 1015.5
20260506024602 62 253 0.0 0.0 0.00 0.00 0.00 75 1015.5
20260506024018 63 253 0.0 0.0 0.00 0.00 0.00 74 1015.4
20260506023516 63 253 0.0 0.0 0.00 0.00 0.00 74 1015.3
20260506023106 63 253 0.0 0.0 0.00 0.00 0.00 73 1015.3
20260506022516 63 253 0.0 0.0 0.00 0.00 0.00 72 1015.3
20260506022020 64 253 0.0 0.0 0.00 0.00 0.00 72 1015.3
20260506021606 64 253 0.0 0.0 0.00 0.00 0.00 71 1015.2
20260506021018 64 253 0.0 0.9 0.00 0.00 0.00 71 1015.2
20260506020531 64 253 0.0 0.9 0.00 0.00 0.00 71 1015.1
20260506020058 65 253 0.0 0.9 0.00 0.00 0.00 71 1015.2
20260506015518 65 253 0.0 0.0 0.00 0.00 0.00 71 1015.1
20260506015016 65 253 0.0 0.0 0.00 0.00 0.00 70 1015.1
20260506014559 65 253 0.0 1.7 0.00 0.00 0.00 69 1015.0
20260506014017 66 253 0.0 1.7 0.00 0.00 0.00 68 1015.1